Regional Weather Roundup
Issued by NWS Upton, NY

Current Version | Previous Version | Text Only | Print | Product List | Glossary On
Versions: 1 2 3 4 5 6 7 8 9 10 11 12 13 14 15 16 17 18 19 20 21 22 23 24 25 26 27 28 29 30 31 32 33 34 35 36 37 38 39 40 41 42 43 44 45 46 47 48 49 50
000
ASUS41 KOKX 270905
RWROKX

REGIONAL WEATHER ROUNDUP
NATIONAL WEATHER SERVICE NEW YORK NY
400 AM EST SAT DEC 27 2014

NOTE: "FAIR" INDICATES FEW OR NO CLOUDS BELOW 12,000 FEET WITH NO
SIGNIFICANT WEATHER AND/OR OBSTRUCTIONS TO VISIBILITY.

NYZ071-072-176-178-NJZ106-104-271000-
NEW YORK CITY METRO AREA


CITY           SKY/WX    TMP DP  RH WIND       PRES   REMARKS
CENTRAL PARK   PTCLDY    45  29  53 CALM      30.22F
LAGUARDIA APRT MOCLDY    44  31  60 CALM      30.20F
KENNEDY INTL   PTCLDY    39  30  70 W6        30.22F WCI  35
NEWARK/LIBERTY PTCLDY    37  30  75 CALM      30.20F
BRNX BOT. GARD   N/A     43  32  65 CALM      30.19F
TETERBORO      PTCLDY    31  28  88 CALM      30.20S
$$

NYZ177-179-078>081-271000-
LONG ISLAND NEW YORK

CITY           SKY/WX    TMP DP  RH WIND       PRES   REMARKS
FARMINGDALE    CLEAR     34  29  82 CALM      30.20F
ISLIP          CLEAR     32  27  81 CALM      30.18S
SHIRLEY        CLEAR     31  27  85 CALM      30.21R
WESTHAMPTON    CLEAR     22  19  89 CALM      30.21S
MONTAUK POINT    N/A     44  34  67 W5        30.19F
$$

NYZ052-065-067-271000-
HUDSON VALLEY

CITY           SKY/WX    TMP DP  RH WIND       PRES   REMARKS
WHITE PLAINS   PTCLDY    38  30  73 NW7       30.17F WCI  33
NEWBURGH       NOT AVBL
MONTGOMERY     PTCLDY    30  28  92 SW3       30.18F
POUGHKEEPSIE   MOCLDY    37  29  72 S3        30.20S
ALBANY         MOCLDY    29  25  85 CALM      30.19S
$$

NJZ001-105-106-008-010-013-015-019>022-104-271000-
NEW JERSEY

CITY           SKY/WX    TMP DP  RH WIND       PRES   REMARKS
NEWARK/LIBERTY PTCLDY    37  30  75 CALM      30.20F
TETERBORO      PTCLDY    31  28  88 CALM      30.20S
CALDWELL       PTCLDY    32  28  85 CALM      30.21S
MORRISTOWN     PTCLDY    30  28  93 CALM      30.21S
SOMERVILLE     CLEAR     27  23  85 CALM      30.20F
SUSSEX         MOCLDY    28  26  92 CALM      30.20S
ANDOVER        NOT AVBL
TRENTON        PTCLDY    32  27  81 SW5       30.21F WCI  27
MILLVILLE      CLEAR     27  25  92 CALM      30.24S
ATLANTIC CITY  CLEAR     34  31  88 CALM      30.24F
WRIGHTSTOWN    PTCLDY    35  31  88 SW5       30.20F WCI  30
TOMS RIVER     CLEAR     28  27  93 CALM      30.23R
BELMAR         CLEAR     36  27  69 W6        30.21F WCI  31
$$

PAZ047>061-062-071-271000-
EASTERN PENNSYLVANIA

CITY           SKY/WX    TMP DP  RH WIND       PRES   REMARKS
PHILADELPHIA   PTCLDY    34  30  85 CALM      30.25F
ALLENTOWN      PTCLDY    31  27  85 NW5       30.22S WCI  26
SCRANTON       MOCLDY    33  29  85 S6        30.19S WCI  28
$$

CTZ002-004>006-009-010-012-RIZ004-006-007-MAZ004-011-015-271000-
SOUTHERN NEW ENGLAND
 IN CT

CITY           SKY/WX    TMP DP  RH WIND       PRES   REMARKS
BRADLEY INTL   MOCLDY    29  25  85 W3        30.18R
HARTFORD       CLEAR     29  27  92 CALM      30.20R
DANBURY        MOCLDY    29  25  85 SW6       30.20S WCI  23
WTRBRY/OXFORD  PTCLDY    37  25  60 W3        30.18F
BRIDGEPORT     FAIR      36  30  79 W5        30.19S WCI  32
MERIDEN        PTCLDY    27  25  92 CALM      30.19R FOG
NEW HAVEN      CLEAR     30  25  81 CALM      30.19R
CHESTER        FAIR      39  30  70 NW3       30.18R
GROTON         CLEAR     28  28 100 CALM      30.18S FOG
WILLIMANTIC    CLEAR     27  24  89 CALM      30.19S

 IN RI

CITY           SKY/WX    TMP DP  RH WIND       PRES   REMARKS
PROVIDENCE     CLEAR     39  27  62 W3        30.16F
BLOCK ISLAND   CLEAR     41  30  65 W6        30.17S
WESTERLY       CLEAR     30  28  92 CALM      30.18S

 IN MA

CITY           SKY/WX    TMP DP  RH WIND       PRES   REMARKS
BOSTON         PTCLDY    41  29  62 W10       30.14F
WORCESTER      CLEAR     32  27  81 SW8       30.13F WCI  25
WESTFIELD      CLEAR     27  24  89 CALM      30.17R
PROVINCETOWN   CLEAR     43  32  65 W13       30.14S
NANTUCKET      CLEAR     41  35  79 W9        30.16S
$$

ANZ330-335-338-340-345-350-353-355-271000-
COASTAL MARINE OBSERVATIONS


STATION/POSITION TIME  SKY/WX   TEMP    WIND        PRES    VSBY  WAVE
                                AIR SEA DIR/SP/G                  HT/PER
                 (UTC)          (F)     (DEG/KT/KT) (MB)    (MI)  (FT/S)
NY HARB ENTRANCE 0900            44 46  260/  6/  8 1023.6          2/16
4S FIRE IS       0900               47                N/A           3/17
20S FIRE ISLAND  0800            47 49              1023.2          3/16
23SW MTP         0900                                 N/A           4/ 5
HUDSON CANYON    0900            49 54  290/ 16/ 17 1023.5          4/ 5
EXECUTION ROCKS  0900            43 42  260/  4/  6   N/A
WESTERN LI SOUND 0900            43     220/  8/ 10   N/A           0
CENTRAL LI SOUND 0900            43 44  280/ 10/ 12   N/A           2/ 4
EASTERN LI SOUND NOT AVBL
ROBBINS REEF     0900            40                 1021.7
$$


>>>>>>>>>>>>>>>>>>>>>>>>>>>> KEY <<<<<<<<<<<<<<<<<<<<<<<<<<<
>                                                          <
>     SKY/WX - SKY CONDITION/PRESENT WEATHER               <
>     TMP    - TEMPERATURE IN FAHRENHEIT                   <
>     DP     - DEWPOINT IN FAHRENHEIT                      <
>     RH     - RELATIVE HUMIDITY IN PERCENT                <
>     WIND   - DIRECTION AND SPEED IN MPH                  <
>     PRES   - MEAN SEA LEVEL PRESSURE IN INCHES OF HG     <
>     WCI    - WIND CHILL INDEX                            <
>     VSB    - VISIBILITY IN MILES                         <
>     HX     - HEAT INDEX                                  <
>     TC     - TEMPERATURE IN CELSIUS                      <
>     VRB    - VARIABLE WIND DIRECTION                     <
>                                                          <
>>>>>>>>>>>>>>>>>>>>>>>>>>>> KEY <<<<<<<<<<<<<<<<<<<<<<<<<<<





USA.gov is the U.S. government's official web portal to all federal, state and local government web resources and services.